Timeline UpdatesTrip UpdatesNews PostsPvt PostsTravel TipsAdmin PostsConv PostsFollowed PostsChat RequestsBlog PostsPNR Posts

Disclaimer
Search
 
 
Fri Jul 25, 2014 06:06:43 ISTHomeTrainsΣChainsAtlasPNRForumGalleryNewsFAQTripsMembersLoginFeedback
No Recent News for this Train
Other Trains in the News **new
Latest...
.
Sat Jan 26, 2013 (03:08PM)
⇐ Return Journey: Train# 59440

59439/Mumbai Central-Ahmedabad Passenger

Feb 22 2014 (11:49PM)
Change Departure Station:
Change Arrival Station:
Post a Train Travel TipPost a Train Travel Tip **new
Post a Comment/Question/Picture/VideoPost a Comment/Question/Picture/Video
Pantry/Catering
✕ NO Pantry Car
✕ NO Catering
RSA - Rake Sharing
59439 and 59442 share rakes.
Rake/Coach Composition
LOCO-SLR-GEN-GEN-GEN-S3-S2-S1-LD-GEN-GEN-GEN-GEN-GEN-GEN-GEN-SLR
Loco
BL WCAM-1/BRC WAG-5A
News    PNR    Forum    Time-Table    Availability    Fare Chart    Map    Arr/Dep History    Trips    Gallery    ΣChains    X/O    Timeline    
Travel Time: 10h 25m    46 halts    Distance: 298 km    Avg Speed: 28 km/hr
Type: Passenger
Zone: WR/Western
Departs @ 18:00
Platform# 2
SMTWTFS
Valsad/BL 
Arrives @ 04:25 +1 night
Platform# 4
SMTWTFS
Ahmedabad Junction/ADI 

46 halts. 60 intermediate Stations between Valsad and Ahmedabad Junction

Show ALL intermediate Stations  Show Old Time-Table

#CodeStation NameX/OArrivesAvgDepartsAvgHaltPFDay#KmSpeedElevZoneAddress
1BCTMumbai Central (9)  -12:15-41-194.4273mWRMumbai 400008, Maharashtra
2DDRMumbai Dadar Western (6)  12:28-12:30-2m51-188.5306mWRMumbai, Maharashtra
3ADHMumbai Andheri (9)  12:52-12:54-2m81-177.33112mWRMumbai, Maharashtra
4BVIMumbai Borivali (8)X  13:18-13:20-2m61-164.73519mWRMumbai - 400092, Maharashtra
5BSRVasai Road (7)  13:50-13:52-2m41-147.3467mWRThane-401202, Maharashtra
6VRVirar (8)X  14:03-14:05-2m31-138.9466mWRThane, Maharashtra
7VTNVaitarna (2)  14:16-14:18-2m11-130.4673mWRThane, Maharashtra
8SAHSaphale (2)X  14:25-14:27-2m11-122.6778mWRThane, Maharashtra
9KLVKelve Road (3)  14:32-14:34-2m21-116.27210mWRThane, Maharashtra
10PLGPalghar (3)X  14:41-14:43-2m11-107.75619mWRPalghar, Maharashtra
11BORBoisar (3)XO  14:55-14:57-2m11-96.51817mWRBoisar Tel.no-02525-266626, Maharashtra
12VGNVangaon (3)XO  15:28-15:30-2m--1-87.15311mWRThane, Maharashtra
13DRDDahanu Road (5)X  15:44-15:46-2m11-74.86712mWRDahanu, Maharashtra
14GVDGholvad (4)  15:56-15:58-2m--1-63.66114mWRGholvad, Maharashtra
15UBRUmbargam Road (3)XO  16:07-16:09-2m11-54.52930mWRUmbergaon, Gujarat
16SJNSanjan (3)X  16:20-16:22-2m--1-49.16322mWRSanjan, Gujarat
17BLDBhilad (3)  16:33-16:35-2m--1-37.55833mWRBhilad, Gujarat
18KEBKarambeli (2)O  16:40-16:42-2m--1-32.72429mWRNational Highway 8, Gujarat
19VAPIVapi (3)X  16:58-17:00-2m11-26.25027mWRVapi, Gujarat
20BAGDBagwada (2)O  17:08-17:09-1m--1-19.54322mWRNH8, Gujarat
21UVDUdvada (3)X  17:13-17:15-2m--1-16.77218mWRUdvada, Gujarat
22PADPardi (3)X  17:20-17:22-2m--1-10.76019mWRValsad, Gujarat
23ATULAtul (3)  17:26-17:28-2m--1-6.72922mWRValsad, Gujarat
24BL»Valsad (3)»XO  17:42-18:00-18m210.06715mWRValsad, Gujarat
25DGIDungri (3)  18:08-18:10-2m118.96120mWRNH 8, Gujarat
26JRSJoravasan (2)  18:15-18:17-2m1114.04015mWRJoravasan, Gujarat
27BIMBilimora Junction (4)XO  18:23-18:25-2m--117.91811mWRBilimora, Gujarat
28AMLAmalsad (3)  18:44-18:46-2m--123.54612mWRAmalsad, Gujarat
29ACLAncheli (2)  18:51-18:53-2m--127.33420mWRNavsari, Gujarat
30VDHVedchha (3)XO  18:59-19:01-2m--130.72313mWRNavsari, Gujarat
31NVSNavsari (3)X  19:23-19:25-2m3139.15114mWRNavsari, Gujarat
32MRLMaroli (3)XO  19:35-19:37-2m--147.52715mWRMaroli, Gujarat
33SCHSachin (3)XO  19:52-19:54-2m1154.24911mWRKansad Road Sachin, Gujarat
34BHETBhestan (2)  20:01-20:03-2m1159.92613mWRSurat, Gujarat
35UDNUdhna Junction (3)XO  20:14-20:16-2m1164.7716mWRUdhna 394210, Gujarat
36STSurat (4)XO  20:49-21:09-20m2168.73919mWRSurat 395001, Gujarat
37URNUtran (3)  21:15-21:17-2m--172.66415mWRSurat, Gujarat
38KSEKosad (2)  21:20-21:22-2m--175.83717mWRSurat, Gujarat
39GTXGothangam (2)XO  21:28-21:30-2m--179.42019mWRAmroli Sayan Rd, Gujarat
40SYNSayan (3)O  21:39-21:41-2m--182.45421mWRSayan Satellite town, Gujarat
41KIMKim (2)  21:52-21:54-2m--192.35818mWRNH 8, Gujarat
42KSBKosamba Junction (3)X  22:02-22:04-2m--1100.16630mWRKosamba, Gujarat
43HATHathuran (2)  22:08-22:10-2m--1104.54632mWRKosamba, Gujarat
44PAOPanoli (3)XO  22:15-22:17-2m--1108.33629mWRPanoli, Gujarat
45AKVAnkleshwar Junction (4)X  22:34-22:36-2m21118.64019mWRAnkleshwar, Gujarat
46BHBharuch Junction (5)X  22:50-22:52-2m31128.06619mWRBharuch, Gujarat
47NIUNabipur (3)X  23:03-23:05-2m--1140.05824mWRNabipur, Gujarat
48VREVarediya (4)X  23:12-23:14-2m--1146.86621mWRNH 8, Gujarat
49PLJPalej (4)O  23:20-23:22-2m--1153.44429mWRPalej, Gujarat
50MYGMiyagam Karjan (2)  23:43-23:45-2m21168.76329mWRKarjan, Gujarat
51ITAItola (4)  23:56-23:58-2m--1180.32627mWRNational Highway 8 Vadodara, Gujarat
52BRCVadodara Junction (7)X  00:40-00:50-10m--2198.53136mWRVadodara 390005, Gujarat
53BJWBajva (3)X  01:04-01:06-2m--2205.82338mWRVadodara, Gujarat
54RNORanoli (2)  01:16-01:18-2m--2209.58339mWRVadodara District, Gujarat
55NDRNandesari (2)X  01:21-01:23-2m--2213.76042mWRNandesari, Gujarat
56VDAVasad Junction (3)O  01:28-01:30-2m--2218.74640mWRVasad, Gujarat
57ADDAdas Road (4)X  01:36-01:38-2m--2223.34142mWRNational Highway 8, Gujarat
58VXDVadod (3)X  01:44-01:46-2m--2227.42444mWRAnand District, Gujarat
59ANNDAnand Junction (6)  02:03-02:08-5m--2234.37444mWRAnand, Gujarat
60KBRVKanjari Boriyavi Junction (4)X  02:14-02:16-2m--2241.74739mWRKanjari, Gujarat
61UTDUtarsanda (4)XO  02:23-02:25-2m--2247.23340mWRUttarsanda, Gujarat
62NDNadiad Junction (4)XO  02:35-02:43-8m--2252.76237mWRNadiad, Gujarat
63GTEGothaj (2)XO  02:52-02:54-2m--2261.92832mWRState Highway 3, Gujarat
64MHDMahemdavad Kheda Road (4)X  03:12-03:14-2m--2270.35037mWRMahemdavad, Gujarat
65NEPNenpur (2)X  03:19-03:21-2m--2274.43435mWRState Highway 3, Gujarat
66KANJKanij (3)  03:26-03:28-2m--2277.33339mWRBareja-Barejadi Rd, Gujarat
67BJDBarejadi Nandej (3)XO  03:36-03:38-2m--2281.61442mWRBareja-Barejadi Rd, Gujarat
68GERGeratpur (2)XO  03:52-03:54-2m--2285.07944mWRAhmadabad, Gujarat
69VTAVatva (4)XO  03:58-04:00-2m--2290.34849mWRDist. Ahmedabad 382445, Gujarat
70MANManinagar (2)O  04:06-04:08-2m12295.11150mWRAhmadabad, Gujarat
71ADI•Ahmedabad Junction (12)•  04:25--42298.3-51mWRAhmedabad, Gujarat
Scroll to Top
Scroll to Bottom